Change the Weather History Date:

Sunday, May 5, 2013

  Actual Average (MHTG) Record (MHTG)
Temperature  
Mean Temperature 77 °F -  
Max Temperature 90 °F 86 °F 91 °F (1998)
Min Temperature 64 °F 64 °F 58 °F (2013)
Cooling Degree Days 12    
Growing Degree Days 27 (Base 50)    
Moisture  
Dew Point 63 °F    
Average Humidity 66    
Maximum Humidity 94    
Minimum Humidity 29    
Precipitation  
Precipitation 0.00 in - - ()
Sea Level Pressure  
Sea Level Pressure 29.91 in    
Wind  
Wind Speed 3 mph ()    
Max Wind Speed 18 mph    
Max Gust Speed -    
Visibility 6.2 miles    
Events Thunderstorm    
Averages and records for this station are not official NWS values.
T = Trace of Precipitation, MM = Missing Value Source: Averaged Metar Reports

Daily Weather History Graph

Daily Weather History Graph

Search for Another Location

Airport or City:

Trip Planner

Search our weather history database for the weather conditions in past years. The results will help you decide how hot, cold, wet, or windy it might be!

Date:

Astronomy

May. 05, 2013 Rise Set
Actual Time 5:26 AM CST 6:08 PM CST
Civil Twilight 5:03 AM CST 6:30 PM CST
Nautical Twilight 4:37 AM CST 6:56 PM CST
Astronomical Twilight 4:10 AM CST 7:23 PM CST
Moon 2:16 AM CST (5/5) 2:42 PM CST (5/5)
Length of Visible Light 13h 26m
Length of Day
12h 41m
Waning Crescent, 17% of the Moon is Illuminated
May 5
Waning Crescent
May 9
New
May 17
First Quarter
May 24
Full
May 31
Last Quarter

Hourly Weather History & Observations

Time (CST) Temp. Heat Index Dew Point Humidity Pressure Visibility Wind Dir Wind Speed Gust Speed Precip Events Conditions
12:58 AM 67.6 °F - 65.1 °F 92% 29.92 in 6.2 mi NNW 2.3 mph - N/A   Clear
1:58 AM 67.6 °F - 65.3 °F 92% 29.90 in 6.2 mi NE 2.3 mph - N/A   Clear
2:58 AM 66.4 °F - 64.6 °F 94% 29.88 in 6.2 mi SE 1.2 mph - N/A   Clear
3:58 AM 65.7 °F - 64.0 °F 94% 29.90 in 6.2 mi ESE 3.5 mph - N/A   Clear
4:43 AM 66.2 °F - 62.6 °F 88% 30.02 in 6.2 mi ESE 2.3 mph - N/A   Mostly Cloudy
4:48 AM 66.2 °F - 62.6 °F 88% 30.02 in 6.2 mi ESE 3.5 mph - N/A   Mostly Cloudy
4:58 AM 65.3 °F - 63.0 °F 92% 29.92 in 6.2 mi ESE 2.3 mph - N/A   Mostly Cloudy
5:18 AM 64.4 °F - 62.6 °F 94% 30.02 in 6.2 mi ESE 1.2 mph - N/A   Scattered Clouds
5:58 AM 64.9 °F - 62.6 °F 92% 29.94 in 6.2 mi East 2.3 mph - N/A   Clear
6:58 AM 66.6 °F - 63.9 °F 91% 29.95 in 6.2 mi SSW 2.3 mph - N/A   Scattered Clouds
7:58 AM 70.5 °F - 64.0 °F 80% 29.95 in 6.2 mi Calm Calm - N/A   Clear
8:58 AM 75.6 °F - 63.5 °F 66% 29.94 in 6.2 mi Variable 2.3 mph - N/A   Clear
9:00 AM 78 °F - 59 °F 41%  in 6 mi North 2.3 mph - -   Smoke
9:58 AM 79.2 °F - 62.8 °F 57% 29.92 in 6.2 mi Variable 2.3 mph - N/A   Partly Cloudy
10:58 AM 82.8 °F 83.0 °F 59.9 °F 46% 29.90 in 6.2 mi Variable 2.3 mph - N/A   Scattered Clouds
11:58 AM 85.5 °F 85.4 °F 60.8 °F 43% 29.86 in 6.2 mi Variable 2.3 mph - N/A   Overcast
12:00 PM 89 °F - 63 °F 31%  in 6 mi Calm Calm - -   Smoke
12:58 PM 88.2 °F 88.1 °F 61.0 °F 40% 29.83 in 6.2 mi Variable 4.6 mph - N/A   Scattered Clouds
1:58 PM 90.7 °F 90.1 °F 59.9 °F 35% 29.78 in 6.2 mi NW 10.4 mph - N/A   Partly Cloudy
2:58 PM 92.3 °F 90.5 °F 55.9 °F 29% 29.78 in 6.2 mi North 10.4 mph - N/A   Clear
3:00 PM 89 °F - 63 °F 32%  in 6 mi South 4.6 mph - -   Smoke
3:59 PM - - - N/A% - - North 18.4 mph - N/A   Unknown
4:58 PM 87.8 °F 86.5 °F 56.7 °F 35% 29.81 in 6.2 mi North 12.7 mph - N/A   Clear
5:58 PM 84.0 °F 84.2 °F 60.3 °F 45% 29.84 in 6.2 mi NNW 10.4 mph - N/A   Mostly Cloudy
6:00 PM 82 °F - 66 °F 49%  in 6 mi South 4.6 mph - - Thunderstorm Thunderstorm
6:58 PM 79.5 °F - 63.9 °F 59% 29.88 in 6.2 mi WSW 6.9 mph - N/A   Clear
7:58 PM 78.1 °F - 64.9 °F 64% 29.91 in 6.2 mi West 5.8 mph - N/A   Clear
8:58 PM 77.0 °F - 66.0 °F 69% 29.94 in 6.2 mi North 2.3 mph - N/A   Scattered Clouds
9:58 PM 74.3 °F - 67.5 °F 79% 29.95 in 6.2 mi WNW 5.8 mph - N/A   Partly Cloudy
10:58 PM 73.8 °F - 68.4 °F 83% 29.95 in 6.2 mi WNW 4.6 mph - N/A   Mostly Cloudy
11:58 PM 72.9 °F - 68.2 °F 85% 29.93 in 6.2 mi NNW 8.1 mph - N/A   Mostly Cloudy